Weather History for KPPO - March, 2014

Change the Weather History Date:

Monday, March 10, 2014

  Actual Average (KVPZ) Record (KVPZ)
Temperature  
Mean Temperature 40 °F 36 °F  
Max Temperature 46 °F 44 °F 67 °F (1902)
Min Temperature 33 °F 27 °F 2 °F (1996)
Degree Days  
Heating Degree Days 25 29  
Month to date heating degree days 311  
Since 1 July heating degree days 5043  
Cooling Degree Days 0 0  
Month to date cooling degree days 0  
Year to date cooling degree days 0  
Moisture  
Dew Point 33 °F    
Average Humidity 75    
Maximum Humidity 100    
Minimum Humidity 65    
Precipitation  
Precipitation 0.00 in 0.07 in 0.78 in (1943)
Month to date precipitation 0.75  
Year to date precipitation 3.92  
Sea Level Pressure  
Sea Level Pressure 29.72 in    
Wind  
Wind Speed 12 mph (SW)    
Max Wind Speed 18 mph    
Max Gust Speed 28 mph    
Visibility 9 miles    
Events Rain    
T = Trace of Precipitation, MM = Missing Value Source: NWS Daily Summary

Daily Weather History Graph

Daily Weather History Graph

Search for Another Location

Airport or City:

Trip Planner

Search our weather history database for the weather conditions in past years. The results will help you decide how hot, cold, wet, or windy it might be!

Date:

Astronomy

Mar. 10, 2014 Rise Set
Actual Time 7:07 AM CDT 6:47 PM CDT
Civil Twilight 6:39 AM CDT 7:15 PM CDT
Nautical Twilight 6:07 AM CDT 7:47 PM CDT
Astronomical Twilight 5:34 AM CDT 8:20 PM CDT
Moon 1:28 PM CDT (3/10) 3:21 AM CDT (3/10)
Length of Visible Light 12h 36m
Length of Day
11h 40m
Waxing Gibbous, 70% of the Moon is Illuminated
Mar 10
Waxing Gibbous
Mar 16
Full
Mar 23
Last Quarter
Mar 30
New
Apr 7
First Quarter

Hourly Weather History & Observations

Time (CDT) Temp. Windchill Dew Point Humidity Pressure Visibility Wind Dir Wind Speed Gust Speed Precip Events Conditions
12:15 AM 36.7 °F 27.2 °F 30.2 °F 77% 29.84 in 7.0 mi SW 16.1 mph - N/A   Clear
12:35 AM 36.7 °F 27.2 °F 30.2 °F 77% 29.83 in 7.0 mi SW 16.1 mph 23.0 mph N/A   Clear
12:55 AM 36.5 °F 26.3 °F 30.2 °F 78% 29.82 in 7.0 mi SW 18.4 mph 27.6 mph N/A   Clear
1:15 AM 36.5 °F 27.0 °F 30.4 °F 78% 29.82 in 5.0 mi SW 16.1 mph 21.9 mph N/A   Haze
1:35 AM 36.7 °F 27.6 °F 30.2 °F 77% 29.80 in 7.0 mi SW 15.0 mph 20.7 mph N/A   Scattered Clouds
1:55 AM 36.5 °F 27.8 °F 30.2 °F 78% 29.80 in 7.0 mi SW 13.8 mph - N/A   Mostly Cloudy
2:15 AM 36.5 °F 28.2 °F 30.2 °F 78% 29.79 in 7.0 mi SW 12.7 mph - N/A   Mostly Cloudy
2:35 AM 36.5 °F 29.2 °F 30.4 °F 78% 29.78 in 7.0 mi SW 10.4 mph - N/A   Mostly Cloudy
2:55 AM 36.9 °F 29.1 °F 30.4 °F 77% 29.77 in 7.0 mi SW 11.5 mph - N/A   Overcast
3:15 AM 37.4 °F 29.8 °F 30.2 °F 75% 29.77 in 7.0 mi WSW 11.5 mph - N/A   Mostly Cloudy
3:35 AM 37.8 °F 29.8 °F 30.2 °F 74% 29.76 in 7.0 mi WSW 12.7 mph 19.6 mph N/A   Overcast
3:55 AM 37.8 °F 29.8 °F 30.2 °F 74% 29.75 in 7.0 mi WSW 12.7 mph 18.4 mph N/A   Light Drizzle
4:15 AM 38.3 °F 31.4 °F 30.2 °F 73% 29.75 in 10.0 mi WSW 10.4 mph - N/A   Overcast
4:35 AM 38.3 °F 31.4 °F 30.0 °F 72% 29.74 in 10.0 mi WSW 10.4 mph - N/A   Mostly Cloudy
4:55 AM 38.5 °F 31.6 °F 30.2 °F 72% 29.75 in 10.0 mi WSW 10.4 mph - N/A Rain Light Rain
5:15 AM 37.8 °F 30.2 °F 30.2 °F 74% 29.75 in 10.0 mi SW 11.5 mph - N/A   Drizzle
5:35 AM 37.8 °F 31.3 °F 30.6 °F 75% 29.76 in 10.0 mi WSW 9.2 mph - N/A   Drizzle
5:55 AM 37.6 °F 31.0 °F 30.6 °F 76% 29.75 in 10.0 mi WSW 9.2 mph - N/A   Overcast
6:15 AM 37.2 °F 30.6 °F 30.6 °F 77% 29.75 in 10.0 mi SW 9.2 mph - N/A Rain Light Rain
6:35 AM 37.2 °F 30.0 °F 30.6 °F 77% 29.74 in 10.0 mi SW 10.4 mph - N/A   Mostly Cloudy
6:55 AM 37.4 °F 31.4 °F 30.4 °F 76% 29.74 in 10.0 mi WSW 8.1 mph - N/A   Mostly Cloudy
7:15 AM 37.4 °F 31.4 °F 30.6 °F 76% 29.75 in 10.0 mi WSW 8.1 mph - N/A   Overcast
7:35 AM 36.9 °F 30.1 °F 30.6 °F 78% 29.74 in 10.0 mi SW 9.2 mph - N/A   Scattered Clouds
7:55 AM 37.0 °F 30.4 °F 30.7 °F 78% 29.75 in 10.0 mi SW 9.2 mph - N/A   Scattered Clouds
8:15 AM 37.4 °F 32.1 °F 30.7 °F 77% 29.75 in 10.0 mi SW 6.9 mph - N/A   Overcast
8:35 AM 37.0 °F 30.4 °F 30.9 °F 79% 29.75 in 10.0 mi SW 9.2 mph - N/A   Overcast
8:55 AM 37.6 °F 30.5 °F 30.9 °F 77% 29.74 in 10.0 mi SW 10.4 mph - N/A   Mostly Cloudy
9:15 AM 38.3 °F 31.9 °F 31.1 °F 75% 29.74 in 10.0 mi SW 9.2 mph - N/A   Scattered Clouds
9:35 AM 38.7 °F 31.8 °F 31.1 °F 74% 29.74 in 10.0 mi SW 10.4 mph - N/A   Clear
9:55 AM 39.2 °F 32.0 °F 31.1 °F 73% 29.74 in 10.0 mi SW 11.5 mph - N/A   Clear
10:15 AM 39.4 °F 32.3 °F 31.1 °F 72% 29.73 in 10.0 mi SW 11.5 mph - N/A   Clear
10:35 AM 40.1 °F 33.2 °F 31.1 °F 70% 29.74 in 10.0 mi SW 11.5 mph 16.1 mph N/A   Clear
10:55 AM 40.5 °F 34.1 °F 31.3 °F 70% 29.73 in 10.0 mi SW 10.4 mph - N/A   Clear
11:15 AM 40.8 °F 33.7 °F 31.3 °F 69% 29.73 in 10.0 mi SW 12.7 mph - N/A   Clear
11:35 AM 41.0 °F 33.9 °F 31.6 °F 69% 29.73 in 10.0 mi SW 12.7 mph - N/A   Clear
11:55 AM 41.4 °F 34.3 °F 31.8 °F 69% 29.72 in 10.0 mi SW 12.7 mph - N/A   Clear
12:15 PM 42.1 °F 34.9 °F 32.0 °F 67% 29.71 in 10.0 mi SW 13.8 mph - N/A   Clear
12:35 PM 42.4 °F 35.3 °F 32.0 °F 67% 29.71 in 10.0 mi SW 13.8 mph - N/A   Clear
12:55 PM 42.8 °F 35.1 °F 32.0 °F 66% 29.70 in 10.0 mi SW 16.1 mph 19.6 mph N/A   Clear
1:15 PM 43.0 °F 36.4 °F 32.2 °F 66% 29.70 in 10.0 mi SW 12.7 mph 18.4 mph N/A   Clear
1:35 PM 43.9 °F 37.2 °F 32.9 °F 65% 29.69 in 10.0 mi SW 13.8 mph - N/A   Clear
1:55 PM 44.1 °F 37.4 °F 33.4 °F 66% 29.68 in 10.0 mi SW 13.8 mph - N/A   Clear
2:15 PM 44.4 °F 37.5 °F 33.8 °F 66% 29.67 in 10.0 mi SW 15.0 mph 20.7 mph N/A   Clear
2:35 PM 45.1 °F 38.4 °F 34.2 °F 65% 29.68 in 10.0 mi SW 15.0 mph - N/A   Clear
2:55 PM 45.5 °F 39.2 °F 34.5 °F 65% 29.68 in 10.0 mi SW 13.8 mph 17.3 mph N/A   Clear
3:15 PM 45.5 °F 38.3 °F 34.7 °F 66% 29.68 in 10.0 mi SW 17.3 mph 21.9 mph N/A   Clear
3:35 PM 45.7 °F 39.8 °F 35.1 °F 66% 29.67 in 10.0 mi SW 12.7 mph 19.6 mph N/A   Clear
3:55 PM 46.0 °F 39.9 °F 35.6 °F 67% 29.67 in 10.0 mi SW 13.8 mph - N/A   Clear
4:15 PM 46.4 °F 41.1 °F 35.8 °F 67% 29.68 in 10.0 mi WSW 11.5 mph - N/A   Clear
4:35 PM 46.4 °F 40.7 °F 36.0 °F 67% 29.67 in 10.0 mi SW 12.7 mph 17.3 mph N/A   Clear
4:55 PM 46.0 °F 39.9 °F 36.1 °F 68% 29.67 in 10.0 mi WSW 13.8 mph - N/A   Clear
5:15 PM 46.0 °F 40.6 °F 36.5 °F 69% 29.67 in 10.0 mi WSW 11.5 mph 18.4 mph N/A   Clear
5:35 PM 46.0 °F 40.6 °F 36.7 °F 70% 29.67 in 10.0 mi WSW 11.5 mph 16.1 mph N/A   Clear
5:55 PM 45.5 °F 39.6 °F 36.9 °F 72% 29.67 in 10.0 mi WSW 12.7 mph - N/A   Clear
6:15 PM 45.5 °F 39.6 °F 37.2 °F 73% 29.67 in 10.0 mi WSW 12.7 mph - N/A   Clear
6:35 PM 44.8 °F 39.4 °F 37.4 °F 75% 29.67 in 10.0 mi WSW 10.4 mph - N/A   Clear
6:55 PM 44.4 °F 39.0 °F 37.4 °F 76% 29.68 in 10.0 mi WSW 10.4 mph - N/A   Clear
7:15 PM 44.1 °F 39.0 °F 37.8 °F 78% 29.69 in 10.0 mi WSW 9.2 mph - N/A   Scattered Clouds
7:35 PM 43.3 °F 38.1 °F 37.4 °F 80% 29.69 in 10.0 mi WSW 9.2 mph - N/A   Scattered Clouds
7:55 PM 42.6 °F 37.8 °F 37.2 °F 81% 29.69 in 10.0 mi WSW 8.1 mph - N/A   Scattered Clouds
8:15 PM 43.0 °F 38.2 °F 37.6 °F 81% 29.70 in 10.0 mi West 8.1 mph - N/A   Clear
8:35 PM 42.8 °F 38.0 °F 37.4 °F 81% 29.70 in 10.0 mi West 8.1 mph - N/A   Clear
8:55 PM 41.9 °F 38.2 °F 37.2 °F 83% 29.69 in 10.0 mi West 5.8 mph - N/A   Scattered Clouds
9:15 PM 41.4 °F 37.6 °F 36.5 °F 83% 29.69 in 10.0 mi WSW 5.8 mph - N/A   Scattered Clouds
9:35 PM 41.5 °F 38.6 °F 36.5 °F 82% 29.69 in 10.0 mi WSW 4.6 mph - N/A   Scattered Clouds
9:55 PM 39.4 °F 36.1 °F 35.1 °F 84% 29.70 in 10.0 mi WSW 4.6 mph - N/A   Scattered Clouds
10:15 PM 39.2 °F 37.0 °F 35.4 °F 86% 29.69 in 7.0 mi SW 3.5 mph - N/A   Scattered Clouds
10:35 PM 36.7 °F 34.1 °F 33.4 °F 88% 29.70 in 5.0 mi SW 3.5 mph - N/A   Clear
10:55 PM 36.9 °F 34.3 °F 34.7 °F 92% 29.69 in 5.0 mi SW 3.5 mph - N/A   Clear
11:15 PM 34.7 °F 31.8 °F 33.1 °F 94% 29.69 in 3.0 mi WSW 3.5 mph - N/A   Mist
11:35 PM 34.9 °F - 34.5 °F 99% 29.69 in 2.5 mi Calm Calm - N/A   Scattered Clouds
11:55 PM 33.6 °F - 33.6 °F 100% 29.69 in 1.2 mi Calm Calm - N/A   Mist